星链-30037 (STARLINK-30037 )

导读 | 星芒AI

STARLINK-30037 是 SpaceX 星链计划中的一颗低轨通信卫星,属于第三代星链卫星(v1.5 或 v2 版本)。该卫星于2023年发射,部署在约550公里高度的近地轨道,旨在为全球用户提供高速互联网服务。它采用先进的推进系统和激光通信技术,提升网络稳定性和数据传输效率。作为星链星座的重要组成部分,STARLINK-30037 有助于扩大覆盖范围,特别是在偏远和网络基础设施薄弱的地区。

基本信息
目录编号:
55712
目录名称:
STARLINK-30037
国际标识:
2023-026T
轨道中心:
EARTH
卫星名称:
星链-30037
卫星全名:
星链-30037 (STARLINK-30037 )
卫星状态:
已陨落 最后检测时间 2024-07-25
发射日期:
2023-02-27 UTC
国别 :
美国 (US)
星等 :
--
轨道信息
数据来源 国际轨道数据
星历时间: 2024-07-24T08:18:28+0800
轨道信息已过期465天
半长轴: 6622.081km
偏心率: 0.0015697
轨道倾角: 42.992°
近地点辐角 283.495°
升交点赤经 70.046°
平近点角 76.418°
近地点: 233.551km
远地点: 254.341km
周期: 89.382分钟
每日圈数: 16.110578
详细信息
固有亮度:
5
最大亮度:
0.4
卫星平台:
Starlink v2.0 mini
覆盖范围:
全球
运营商:
太空探索技术公司
运营商所在国:
美国
制造商(研发单位):
太空探索技术公司
制造商所在国:
美国
使用方式:
暂无
卫星简介
星链(Starlink)计划是由太空探索技术公司(SpaceX)提出的一个巨型低轨卫星互联网星座项目,计划在2019年至2024年间在太空搭建由约1.2万颗卫星组成的“星链”网络,其中1584颗将部署在地球上空550千米处的近地轨道,并从2020年开始工作。该卫星仍在工作。